GW5671 Weather Reports


Display with metric or nautical units.
time (UTC)temp
F
wind
direction
speed
MPH
gust
MPH
rain 1hr
in
rain 24hr
in
rain mn
in
humidity
%
barometer
mb
20260509183003 61 353 13.0 18.0 0.00 0.18 0.01 72 1017.0
20260509182503 62 353 13.0 18.0 0.00 0.18 0.01 71 1016.9
20260509181503 64 352 6.0 16.0 0.00 0.18 0.01 66 1016.9
20260509181005 64 10 2.0 4.0 0.00 0.18 0.01 59 1016.8
20260509180503 65 25 2.0 6.0 0.00 0.18 0.01 57 1016.8
20260509180004 65 39 2.0 6.0 0.00 0.18 0.01 56 1016.8
20260509175505 65 47 2.0 7.0 0.00 0.18 0.01 56 1016.8
20260509175003 65 39 3.0 7.0 0.00 0.18 0.01 51 1016.8
20260509174503 66 34 3.0 7.0 0.00 0.18 0.01 55 1016.8
20260509174005 66 30 2.0 6.0 0.00 0.18 0.01 54 1016.8
20260509173503 66 14 3.0 5.0 0.00 0.18 0.01 58 1016.7
20260509172503 66 16 4.0 8.0 0.00 0.18 0.01 53 1016.7
20260509171503 66 27 2.0 5.0 0.00 0.18 0.01 55 1016.7
20260509171007 66 44 3.0 8.0 0.00 0.18 0.01 52 1016.7
20260509170504 66 43 4.0 8.0 0.00 0.18 0.01 50 1016.8
20260509165503 66 45 2.0 8.0 0.00 0.18 0.01 51 1016.8
20260509165005 66 67 2.0 6.0 0.00 0.18 0.01 52 1016.8
20260509164503 66 67 2.0 6.0 0.00 0.18 0.01 52 1016.7
20260509164003 66 67 2.0 6.0 0.00 0.18 0.01 52 1016.7
20260509163503 66 67 2.0 6.0 0.00 0.18 0.01 52 1016.7
20260509163005 66 67 2.0 6.0 0.00 0.18 0.01 52 1016.7
20260509162505 66 67 2.0 6.0 0.00 0.18 0.01 52 1016.8
20260509160003 66 60 3.0 9.0 0.00 0.18 0.01 51 1016.9
20260509155503 66 47 3.0 9.0 0.00 0.18 0.01 50 1016.9
20260509155005 66 40 3.0 8.0 0.00 0.18 0.01 52 1017.0
20260509154505 66 42 2.0 8.0 0.00 0.18 0.01 50 1017.0
20260509154003 67 28 3.0 9.0 0.00 0.18 0.01 54 1016.9
20260509152503 67 64 3.0 9.0 0.00 0.18 0.01 51 1017.0
20260509152003 67 58 3.0 8.0 0.00 0.18 0.01 51 1017.1
20260509151506 67 67 3.0 9.0 0.00 0.18 0.01 50 1017.0
20260509151003 67 86 3.0 9.0 0.00 0.18 0.01 52 1017.1
20260509150003 67 77 3.0 9.0 0.00 0.18 0.01 52 1017.1
20260509144505 67 33 2.0 7.0 0.00 0.18 0.01 55 1017.2
20260509144003 67 64 3.0 7.0 0.00 0.18 0.01 54 1017.2
20260509143503 67 76 3.0 7.0 0.00 0.18 0.01 51 1017.2
20260509143003 67 48 3.0 7.0 0.00 0.18 0.01 51 1017.2
20260509141505 67 88 4.0 9.0 0.00 0.18 0.01 52 1017.3
20260509140505 67 71 3.0 9.0 0.00 0.18 0.01 56 1017.3
20260509135505 67 41 4.0 10.0 0.00 0.18 0.01 53 1017.3
20260509135003 67 13 5.0 10.0 0.00 0.18 0.01 53 1017.4
20260509133505 66 77 4.0 10.0 0.00 0.18 0.01 54 1017.4
20260509133004 67 54 4.0 10.0 0.00 0.18 0.01 57 1017.4
20260509132503 67 50 4.0 15.0 0.00 0.18 0.01 58 1017.6
20260509130505 66 59 4.0 10.0 0.00 0.18 0.01 60 1017.5
20260509125505 65 61 5.0 9.0 0.00 0.18 0.01 55 1017.6
20260509125003 66 69 4.0 9.0 0.00 0.18 0.01 57 1017.8
20260509124005 66 35 4.0 9.0 0.00 0.18 0.01 58 1017.8
20260509123003 66 18 3.0 9.0 0.00 0.18 0.01 62 1017.8
20260509122503 65 27 3.0 10.0 0.00 0.18 0.01 58 1017.9
20260509122005 65 31 4.0 10.0 0.00 0.18 0.01 60 1018.0
20260509121503 65 33 3.0 8.0 0.00 0.18 0.01 61 1017.9
20260509121003 64 57 3.0 8.0 0.00 0.18 0.01 62 1018.0
20260509120503 64 53 4.0 10.0 0.00 0.18 0.01 59 1018.0
20260509120005 65 44 4.0 10.0 0.00 0.18 0.01 60 1018.1
20260509115503 65 80 3.0 7.0 0.00 0.18 0.01 64 1018.1
20260509115003 64 82 4.0 9.0 0.00 0.18 0.01 61 1018.1
20260509114503 64 65 3.0 9.0 0.00 0.18 0.01 59 1018.2
20260509114005 64 58 3.0 9.0 0.00 0.18 0.01 62 1018.2
20260509113503 64 60 4.0 9.0 0.00 0.18 0.01 62 1018.2
20260509112505 64 70 4.0 9.0 0.00 0.18 0.01 61 1018.3
20260509110505 63 60 2.0 9.0 0.00 0.18 0.01 66 1018.4
20260509105003 62 85 3.0 8.0 0.00 0.18 0.01 75 1018.5
20260509104503 62 70 3.0 8.0 0.00 0.18 0.01 76 1018.5
20260509104005 62 27 3.0 7.0 0.00 0.18 0.01 80 1018.5
20260509103003 61 30 3.0 7.0 0.00 0.18 0.01 84 1018.7
20260509102503 60 49 3.0 7.0 0.00 0.18 0.01 86 1018.7
20260509102005 60 53 3.0 7.0 0.00 0.18 0.01 88 1018.6
20260509101003 58 97 2.0 6.0 0.00 0.18 0.01 93 1018.6
20260509100503 58 161 2.0 6.0 0.00 0.18 0.01 93 1018.6
20260509095505 57 211 2.0 6.0 0.00 0.18 0.01 94 1018.8
20260509095003 57 295 1.0 3.0 0.00 0.18 0.01 96 1018.8
20260509094503 57 306 1.0 3.0 0.00 0.18 0.01 97 1018.9
20260509094003 56 306 1.0 3.0 0.00 0.18 0.01 97 1018.9
20260509093003 55 306 1.0 3.0 0.00 0.18 0.01 97 1018.8
20260509092503 55 306 2.0 3.0 0.00 0.18 0.01 97 1018.9
20260509092003 54 305 2.0 3.0 0.00 0.18 0.01 96 1018.8
20260509091503 54 301 2.0 3.0 0.00 0.18 0.01 97 1018.9
20260509090505 53 263 2.0 3.0 0.00 0.18 0.01 97 1018.9
20260509090003 53 254 1.0 3.0 0.00 0.18 0.01 96 1018.9
20260509085503 52 254 1.0 3.0 0.00 0.18 0.01 97 1018.9
20260509085003 52 265 2.0 3.0 0.00 0.18 0.01 97 1018.9
20260509084503 52 315 2.0 3.0 0.00 0.18 0.01 97 1018.9
20260509084006 52 329 2.0 4.0 0.00 0.18 0.01 96 1018.9
20260509082005 50 325 2.0 4.0 0.01 0.18 0.01 96 1019.0
20260509081004 50 325 2.0 3.0 0.01 0.18 0.01 97 1019.1
20260509080503 50 321 2.0 4.0 0.01 0.18 0.01 96 1019.1
20260509075505 49 313 2.0 4.0 0.01 0.18 0.01 96 1019.2
20260509075003 49 313 2.0 4.0 0.01 0.18 0.01 96 1019.2
20260509074503 49 313 1.0 3.0 0.01 0.18 0.01 96 1019.2
20260509074005 49 313 1.0 3.0 0.01 0.18 0.01 96 1019.1
20260509073005 48 313 1.0 3.0 0.01 0.18 0.01 96 1019.1
20260509071505 48 0 0.0 0.0 0.00 0.17 0.00 97 1019.1
20260509070503 47 313 0.0 2.0 0.00 0.17 0.00 96 1019.0
20260509070003 47 301 1.0 3.0 0.00 0.17 0.00 96 1019.0
20260509065503 47 295 2.0 4.0 0.00 0.17 0.00 96 1019.0
20260509064003 47 272 2.0 3.0 0.00 0.17 0.00 96 1019.0
20260509062505 46 24 1.0 2.0 0.00 0.17 0.00 96 1018.9
20260509061005 46 24 0.0 1.0 0.00 0.17 0.00 96 1018.8
20260509060004 45 24 0.0 1.0 0.00 0.17 0.00 96 1018.8
20260509055005 45 24 0.0 2.0 0.00 0.17 0.00 95 1018.8
20260509054503 45 24 1.0 2.0 0.00 0.17 0.00 95 1018.7
20260509053503 45 24 2.0 3.0 0.00 0.17 0.00 95 1018.7
20260509053006 45 24 1.0 2.0 0.00 0.17 0.00 95 1018.7
20260509052503 45 24 1.0 2.0 0.00 0.17 0.00 95 1018.6
20260509052003 45 24 1.0 3.0 0.00 0.17 0.00 95 1018.6
20260509051503 44 24 1.0 3.0 0.00 0.17 0.00 95 1018.6
20260509050505 44 0 0.0 0.0 0.00 0.17 0.00 95 1018.5
20260509050005 44 0 0.0 0.0 0.00 0.17 0.00 95 1018.4
20260509045503 44 0 0.0 0.0 0.00 0.17 0.00 95 1018.4
20260509045005 44 0 0.0 0.0 0.00 0.17 0.00 95 1018.3
20260509043009 44 0 0.0 0.0 0.00 0.17 0.00 95 1018.2
20260509042503 44 0 0.0 0.0 0.00 0.17 0.00 95 1018.3
20260509042005 44 0 0.0 0.0 0.00 0.17 0.00 95 1018.3
20260509041510 44 0 0.0 0.0 0.00 0.17 0.00 94 1018.3
20260509041003 45 0 0.0 0.0 0.00 0.17 0.00 94 1018.3
20260509040508 45 0 0.0 0.0 0.00 0.17 0.00 94 1018.2
20260509035505 45 24 1.0 3.0 0.00 0.17 0.00 94 1018.1
20260509035003 45 24 0.0 2.0 0.00 0.17 0.00 94 1018.1
20260509034503 46 24 0.0 2.0 0.00 0.17 0.00 95 1018.0
20260509034005 46 0 0.0 0.0 0.00 0.17 0.00 95 1018.0
20260509033003 46 0 0.0 0.0 0.00 0.17 0.00 95 1018.2
20260509032508 46 0 0.0 0.0 0.00 0.17 0.00 95 1018.1
20260509032005 46 0 0.0 0.0 0.00 0.17 0.00 94 1018.1
20260509031503 46 0 0.0 0.0 0.00 0.17 0.00 94 1018.3
20260509031003 46 0 0.0 0.0 0.00 0.17 0.00 94 1018.2
20260509030505 46 0 0.0 0.0 0.00 0.17 0.00 94 1018.2
20260509030005 46 0 0.0 0.0 0.00 0.17 0.00 94 1018.2
20260509025503 47 0 0.0 0.0 0.00 0.17 0.00 94 1018.1
20260509025005 47 0 0.0 0.0 0.00 0.17 0.00 94 1018.2
20260509024503 47 0 0.0 0.0 0.00 0.17 0.00 94 1018.1
20260509023005 48 0 0.0 0.0 0.00 0.17 0.00 94 1018.0
20260509022505 48 0 0.0 0.0 0.00 0.17 0.00 94 1018.0
20260509022005 48 0 0.0 1.0 0.00 0.17 0.00 94 1018.1
20260509021505 48 0 0.0 1.0 0.00 0.17 0.00 94 1018.0
20260509020003 48 24 1.0 2.0 0.00 0.17 0.00 94 1018.0
20260509015503 48 24 1.0 2.0 0.00 0.17 0.00 94 1018.0
20260509015005 48 24 1.0 2.0 0.00 0.17 0.00 94 1017.9
20260509014503 48 24 1.0 2.0 0.00 0.17 0.00 94 1018.0
20260509014003 48 24 1.0 2.0 0.00 0.17 0.00 94 1018.1
20260509013503 48 24 0.0 1.0 0.00 0.17 0.00 94 1018.1
20260509012505 49 0 0.0 1.0 0.00 0.17 0.00 94 1018.2
20260509012003 49 0 0.0 1.0 0.00 0.17 0.00 94 1018.2
20260509011503 49 24 0.0 1.0 0.00 0.17 0.00 94 1018.2
20260509011003 49 24 0.0 1.0 0.00 0.17 0.00 94 1018.2
20260509010505 49 24 1.0 2.0 0.00 0.17 0.00 94 1018.1
20260509005005 49 24 2.0 4.0 0.00 0.17 0.00 94 1018.2
20260509003505 49 110 2.0 3.0 0.00 0.17 0.00 93 1018.1
20260509003003 50 110 1.0 2.0 0.00 0.17 0.00 93 1018.2
20260509002505 50 110 1.0 2.0 0.00 0.17 0.00 93 1018.1
20260509002005 50 110 0.0 1.0 0.00 0.17 0.00 93 1018.1
20260509001503 50 110 0.0 1.0 0.00 0.17 0.00 93 1018.2
20260509001003 50 110 0.0 1.0 0.00 0.17 0.00 93 1018.1
20260508234505 51 110 0.0 2.0 0.00 0.17 0.00 93 1018.1
20260508234005 51 110 1.0 2.0 0.00 0.17 0.00 93 1018.1
20260508233506 51 110 1.0 3.0 0.00 0.17 0.00 93 1018.2
20260508232005 51 110 2.0 4.0 0.00 0.17 0.00 93 1018.2
20260508231505 51 111 3.0 6.0 0.00 0.17 0.00 93 1018.2
20260508230004 51 83 2.0 4.0 0.00 0.17 0.00 93 1018.0
20260508225505 51 84 2.0 4.0 0.00 0.17 0.17 93 1018.0
20260508224503 51 83 2.0 3.0 0.01 0.17 0.17 93 1018.0
20260508223503 52 82 1.0 3.0 0.02 0.17 0.17 92 1018.0
20260508223003 52 83 1.0 4.0 0.04 0.17 0.17 92 1018.0
20260508222505 52 83 2.0 4.0 0.05 0.17 0.17 92 1018.0
20260508221505 52 69 2.0 4.0 0.08 0.17 0.17 92 1018.0
20260508221003 52 67 2.0 4.0 0.08 0.17 0.17 92 1018.0
20260508220503 52 67 2.0 4.0 0.08 0.17 0.17 92 1018.1
20260508215503 52 122 2.0 4.0 0.08 0.17 0.17 91 1018.1
20260508214005 52 0 0.0 4.0 0.06 0.15 0.15 92 1018.3
20260508213003 52 143 1.0 7.0 0.04 0.13 0.13 91 1018.3
20260508212503 52 143 2.0 7.0 0.03 0.13 0.13 91 1018.2
20260508212005 52 140 3.0 5.0 0.00 0.09 0.09 91 1018.0
20260508211505 52 116 3.0 5.0 0.00 0.09 0.09 90 1017.9
20260508210508 52 115 4.0 9.0 0.00 0.09 0.09 90 1017.7
20260508205505 52 106 3.0 6.0 0.00 0.09 0.09 90 1017.6
20260508204508 52 130 3.0 6.0 0.00 0.09 0.09 90 1017.5
20260508204005 52 111 2.0 6.0 0.01 0.09 0.09 90 1017.4
20260508203004 52 56 3.0 10.0 0.02 0.09 0.09 90 1017.3
20260508202503 52 57 3.0 11.0 0.03 0.09 0.09 89 1017.2
20260508202005 52 56 2.0 11.0 0.04 0.09 0.09 89 1017.2
20260508201503 53 63 2.0 8.0 0.05 0.09 0.09 89 1017.1
20260508201005 53 58 3.0 7.0 0.06 0.09 0.09 89 1017.1
20260508200005 54 68 2.0 9.0 0.09 0.09 0.09 89 1017.2
20260508195503 54 53 3.0 9.0 0.09 0.09 0.09 89 1017.2
20260508195003 54 44 3.0 9.0 0.09 0.09 0.09 88 1017.3
20260508194503 54 47 2.0 6.0 0.09 0.09 0.09 88 1017.2
20260508194005 55 48 2.0 6.0 0.09 0.09 0.09 88 1017.3
20260508193005 55 79 1.0 4.0 0.07 0.07 0.07 87 1017.3
20260508192503 55 78 2.0 4.0 0.06 0.06 0.06 86 1017.1
20260508190004 57 123 1.0 4.0 0.01 0.01 0.01 81 1016.8
20260508185505 58 192 0.0 3.0 0.00 0.00 0.00 82 1016.7
20260508184004 58 140 2.0 5.0 0.00 0.00 0.00 81 1016.6